Immokalee, FL

8:47 PM EST on February 23, 2017 (GMT -0500)
Immokalee

Weather History for KIMM - December, 2013

Change the Weather History Date:

Friday, December 6, 2013

  Actual Average (KRSW) Record (KRSW)
Temperature  
Mean Temperature 74 °F -  
Max Temperature 89 °F 78 °F 87 °F (1978)
Min Temperature 60 °F 56 °F 41 °F (1957)
Cooling Degree Days 10    
Growing Degree Days 24 (Base 50)    
Moisture  
Dew Point 69 °F    
Average Humidity 72    
Maximum Humidity 100    
Minimum Humidity 46    
Precipitation  
Precipitation 0.00 in - - ()
Sea Level Pressure  
Sea Level Pressure 30.16 in    
Wind  
Wind Speed 5 mph (SE)    
Max Wind Speed 14 mph    
Max Gust Speed 17 mph    
Visibility 10 miles    
Events      
Averages and records for this station are not official NWS values.
T = Trace of Precipitation, MM = Missing Value Source: NWS Daily Summary

Daily Weather History Graph

Daily Weather History Graph

Search for Another Location

Airport or City:

Trip Planner

Search our weather history database for the weather conditions in past years. The results will help you decide how hot, cold, wet, or windy it might be!

Date:

Astronomy

Dec. 06, 2013 Rise Set
Actual Time 7:00 AM EST 5:33 PM EST
Civil Twilight 6:35 AM EST 5:58 PM EST
Nautical Twilight 6:06 AM EST 6:27 PM EST
Astronomical Twilight 5:38 AM EST 6:55 PM EST
Moon 10:17 AM EST (12/6) 9:48 PM EST (12/6)
Length of Visible Light 11h 23m
Length of Day
10h 33m
Waxing Crescent, 19% of the Moon is Illuminated
Dec 6
Waxing Crescent
Dec 9
First Quarter
Dec 17
Full
Dec 25
Last Quarter
Jan 1
New

Hourly Weather History & Observations

Time (EST) Temp. Heat Index Dew Point Humidity Pressure Visibility Wind Dir Wind Speed Gust Speed Precip Events Conditions
12:15 AM 68.0 °F - - N/A% 30.14 in 10.0 mi Calm Calm - 0.00 in   Clear
12:35 AM 68.0 °F - - N/A% 30.13 in 10.0 mi Calm Calm - 0.00 in   Clear
12:55 AM 68.0 °F - - N/A% 30.12 in 10.0 mi Calm Calm - 0.00 in   Clear
1:15 AM 66.2 °F - - N/A% 30.12 in 10.0 mi Calm Calm - 0.00 in   Clear
6:55 AM 64.4 °F - - N/A% 30.15 in 1.0 mi Calm Calm - 0.00 in   Clear
7:15 AM 64.4 °F - - N/A% 30.15 in 2.0 mi Calm Calm - 0.00 in   Clear
7:35 AM 64.4 °F - - N/A% 30.16 in 9.0 mi Calm Calm - 0.00 in   Clear
7:55 AM 68.0 °F - - N/A% 30.16 in 10.0 mi Calm Calm - 0.00 in   Clear
8:15 AM 69.8 °F - - N/A% 30.17 in 10.0 mi Calm Calm - 0.00 in   Partly Cloudy
8:35 AM 71.6 °F - - N/A% 30.18 in 10.0 mi East 3.5 mph - 0.00 in   Scattered Clouds
8:55 AM 73.4 °F - - N/A% 30.19 in 10.0 mi East 5.8 mph - 0.00 in   Partly Cloudy
9:15 AM 78.8 °F - 78.8 °F 100% 30.19 in 10.0 mi ESE 6.9 mph - 0.00 in   Clear
9:35 AM 80.6 °F 88.1 °F 78.8 °F 94% 30.20 in 10.0 mi ESE 9.2 mph - 0.00 in   Clear
9:55 AM 80.6 °F 88.1 °F 78.8 °F 94% 30.20 in 10.0 mi ESE 12.7 mph - 0.00 in   Clear
10:15 AM 82.4 °F 90.9 °F 77.0 °F 84% 30.19 in 10.0 mi SE 13.8 mph - 0.00 in   Partly Cloudy
10:35 AM 80.6 °F 86.2 °F 75.2 °F 84% 30.19 in 10.0 mi SE 13.8 mph - 0.00 in   Scattered Clouds
10:55 AM 84.2 °F 90.9 °F 73.4 °F 70% 30.19 in 10.0 mi SE 9.2 mph - 0.00 in   Partly Cloudy
11:15 AM 84.2 °F 90.9 °F 73.4 °F 70% 30.18 in 10.0 mi SSE 13.8 mph - 0.00 in   Scattered Clouds
11:35 AM 84.2 °F 89.6 °F 71.6 °F 66% 30.18 in 10.0 mi ESE 11.5 mph 16.1 mph 0.00 in   Scattered Clouds
11:55 AM 87.8 °F 92.6 °F 69.8 °F 55% 30.17 in 10.0 mi SE 12.7 mph - 0.00 in   Partly Cloudy
12:15 PM 84.2 °F 88.4 °F 69.8 °F 62% 30.16 in 10.0 mi ESE 12.7 mph - 0.00 in   Partly Cloudy
12:35 PM 86.0 °F 90.4 °F 69.8 °F 58% 30.15 in 10.0 mi SE 12.7 mph 16.1 mph 0.00 in   Mostly Cloudy
12:55 PM 87.8 °F 91.4 °F 68.0 °F 52% 30.14 in 10.0 mi ESE 12.7 mph - 0.00 in   Scattered Clouds
1:15 PM 87.8 °F 91.4 °F 68.0 °F 52% 30.13 in 10.0 mi SE 11.5 mph - 0.00 in   Partly Cloudy
1:35 PM 89.6 °F 92.2 °F 66.2 °F 46% 30.12 in 10.0 mi SE 9.2 mph - 0.00 in   Partly Cloudy
1:55 PM 87.8 °F 90.4 °F 66.2 °F 49% 30.12 in 10.0 mi SSE 11.5 mph - 0.00 in   Partly Cloudy
2:15 PM 89.6 °F 92.2 °F 66.2 °F 46% 30.11 in 10.0 mi SSE 12.7 mph - 0.00 in   Partly Cloudy
2:35 PM 89.6 °F 92.2 °F 66.2 °F 46% 30.11 in 8.0 mi SE 10.4 mph 17.3 mph 0.00 in   Mostly Cloudy
2:55 PM 87.8 °F 90.4 °F 66.2 °F 49% 30.10 in 10.0 mi SE 11.5 mph - 0.00 in   Scattered Clouds
3:15 PM 84.2 °F 86.6 °F 66.2 °F 55% 30.10 in 10.0 mi SSE 10.4 mph - 0.00 in   Clear
3:35 PM 84.2 °F 86.6 °F 66.2 °F 55% 30.11 in 10.0 mi SE 9.2 mph - 0.00 in   Clear
3:55 PM 86.0 °F 88.2 °F 66.2 °F 51% 30.11 in 10.0 mi SE 10.4 mph - 0.00 in   Clear
4:15 PM 84.2 °F 86.6 °F 66.2 °F 55% 30.12 in 9.0 mi SE 10.4 mph - 0.00 in   Clear
4:35 PM 84.2 °F 86.6 °F 66.2 °F 55% 30.12 in 10.0 mi SE 8.1 mph - 0.00 in   Clear
4:55 PM 82.4 °F 84.6 °F 66.2 °F 58% 30.12 in 10.0 mi SE 4.6 mph - 0.00 in   Clear
5:15 PM 80.6 °F 82.7 °F 66.2 °F 61% 30.13 in 10.0 mi SE 4.6 mph - 0.00 in   Clear
5:35 PM 78.8 °F - 66.2 °F 65% 30.13 in 10.0 mi Calm Calm - 0.00 in   Clear
5:55 PM 75.2 °F - 68.0 °F 78% 30.13 in 10.0 mi SE 5.8 mph - 0.00 in   Clear
6:15 PM 75.2 °F - 68.0 °F 78% 30.14 in 10.0 mi ESE 5.8 mph - 0.00 in   Clear
6:35 PM 73.4 °F - 68.0 °F 83% 30.14 in 10.0 mi SE 6.9 mph - 0.00 in   Clear
6:55 PM 73.4 °F - 69.8 °F 88% 30.15 in 10.0 mi SE 5.8 mph - 0.00 in   Clear
7:15 PM 73.4 °F - 68.0 °F 83% 30.16 in 10.0 mi SE 6.9 mph - 0.00 in   Clear
7:35 PM 73.4 °F - 68.0 °F 83% 30.16 in 10.0 mi SE 6.9 mph - 0.00 in   Clear
7:55 PM 71.6 °F - 69.8 °F 94% 30.16 in 10.0 mi SE 4.6 mph - 0.00 in   Clear
8:15 PM 71.6 °F - 69.8 °F 94% 30.17 in 10.0 mi ESE 4.6 mph - 0.00 in   Clear
8:35 PM 69.8 °F - 69.8 °F 100% 30.18 in 10.0 mi Calm Calm - 0.00 in   Clear
8:55 PM 69.8 °F - 69.8 °F 100% 30.18 in 10.0 mi Calm Calm - 0.00 in   Clear
9:15 PM 66.2 °F - 66.2 °F 100% 30.19 in 10.0 mi Calm Calm - 0.00 in   Clear
9:35 PM 66.2 °F - 66.2 °F 100% 30.19 in 10.0 mi Calm Calm - 0.00 in   Clear
9:55 PM 64.4 °F - 64.4 °F 100% 30.19 in 10.0 mi Calm Calm - 0.00 in   Clear
10:15 PM 64.4 °F - - N/A% 30.20 in 10.0 mi Calm Calm - 0.00 in   Clear
10:35 PM 62.6 °F - - N/A% 30.20 in 10.0 mi Calm Calm - 0.00 in   Clear
10:55 PM 62.6 °F - - N/A% 30.20 in 10.0 mi Calm Calm - 0.00 in   Clear
11:15 PM 62.6 °F - - N/A% 30.20 in 10.0 mi Calm Calm - 0.00 in   Clear
11:35 PM 60.8 °F - - N/A% 30.20 in 10.0 mi Calm Calm - 0.00 in   Clear
11:55 PM 60.8 °F - - N/A% 30.20 in 10.0 mi Calm Calm - 0.00 in   Clear